Regional Weather Roundup
Issued by NWS Upton, NY

Current Version | Previous Version | Graphics & Text | Print | Product List | Glossary Off
Versions: 1 2 3 4 5 6 7 8 9 10 11 12 13 14 15 16 17 18 19 20 21 22 23 24 25 26 27

000
ASUS41 KOKX 281609
RWROKX

REGIONAL WEATHER ROUNDUP
NATIONAL WEATHER SERVICE NEW YORK NY
1200 PM EDT SUN MAY 28 2017

NOTE: "FAIR" INDICATES FEW OR NO CLOUDS BELOW 12,000 FEET WITH NO
SIGNIFICANT WEATHER AND/OR OBSTRUCTIONS TO VISIBILITY.

NYZ071-072-176-178-NJZ106-104-281700-
NEW YORK CITY METRO AREA

CITY           SKY/WX    TMP DP  RH WIND       PRES   REMARKS
Central Park   CLOUDY    71  58  63 MISG      29.97R
Wall St Helipt MOSUNNY   70  58  65 VRB7      29.96S
Bronx Bot Gard   N/A     70  57  64 S8        29.97R
LaGuardia APRT PTSUNNY   69  57  65 S12       29.94R
Kennedy INTL   PTSUNNY   66  61  84 SE14      29.97R
Breezy Point     N/A     61 N/A N/A SE10        N/A
Newark/Liberty CLOUDY    71  58  63 E12       29.93S
Teterboro      MOSUNNY   71  60  68 S8        29.92S
$$

NYZ177-179-078>081-281700-
LONG ISLAND NEW YORK

CITY           SKY/WX    TMP DP  RH WIND       PRES   REMARKS
Jones Beach      N/A     61 N/A N/A SE8         N/A
Matinecock PT  NOT AVBL
Farmingdale    CLOUDY    66  57  72 S15       29.97R
MacArthur/ISP  CLOUDY    66  56  70 S13       29.96S
Shirley        CLOUDY    65  56  72 S13       29.98R
Mt Sinai Harb    N/A    N/A N/A N/A S9          N/A
Westhampton    CLOUDY    64  52  64 S12       30.00R
East Hampton     N/A     63  53  71 S9G16     29.98S
Montauk          N/A     63  53  70 S8        30.00R
$$

NYZ052-065-067-281700-
HUDSON VALLEY

CITY           SKY/WX    TMP DP  RH WIND       PRES   REMARKS
White Plains   PTSUNNY   69  58  67 S7        29.95R
Larchmont Harb   N/A     59 N/A N/A NE10        N/A
Croton O-T Hud   N/A     68 N/A N/A SE5         N/A
Newburgh       MOSUNNY   72  61  68 SE5       29.94R
Montgomery     CLOUDY    72  59  63 S8        29.92R
Poughkeepsie   CLOUDY    71  58  63 VRB3      29.91R
Albany         CLOUDY    70  54  56 S5        29.93R
$$

NJZ001-105-106-008-010-013-015-019>022-104-281700-
NEW JERSEY

CITY           SKY/WX    TMP DP  RH WIND       PRES   REMARKS
Newark/Liberty CLOUDY    71  58  63 E12       29.93S
Teterboro      MOSUNNY   71  60  68 S8        29.92S
Caldwell       CLOUDY    72  58  61 S10       29.94R
Somerville     MOSUNNY   73  60  63 VRB5      29.91R
Linden           N/A     71  57  62 SE9       29.94R
Perth Amboy      N/A     68 N/A N/A E12         N/A
Sussex         CLOUDY    73  60  63 MISG      29.93R
Andover          N/A     73  58  59 VRB6      29.92R
Trenton        PTSUNNY   72  60  66 S10       29.92R
Millville      PTSUNNY   72  61  68 SE12      29.94R
Atlantic City  CLOUDY    69  55  60 SE16      29.95R
Wrightstown    MOSUNNY   73  59  60 SE12G21   29.91R
Toms River     SUNNY     71  58  63 SE12G20   29.95R
Belmar         MOSUNNY   69  56  62 SE10G17   29.96S
$$

PAZ047>061-062-071-281700-
EASTERN PENNSYLVANIA

CITY           SKY/WX    TMP DP  RH WIND       PRES   REMARKS
Philadelphia   PTSUNNY   76  61  59 SE9       29.92R
Allentown      MOSUNNY   76  56  49 SE7       29.92R
Scranton       PTSUNNY   74  53  48 SW8       29.90R
$$

CTZ002-004>006-009-010-012-RIZ004-006-007-MAZ004-011-015-281700-
SOUTHERN NEW ENGLAND
 IN CT

CITY           SKY/WX    TMP DP  RH WIND       PRES   REMARKS
Bradley INTL   CLOUDY    71  56  58 SW6       29.94S
Hartford       CLOUDY    70  59  68 S6        29.94S
Danbury        CLOUDY    68  59  73 SE9       29.96R
Wtrbury/Oxford PTSUNNY   68  55  64 S7G16     29.97R
Bridgeport     CLOUDY    65  56  72 E12       29.96R
Meriden        CLOUDY    68  56  65 SE10      29.95S
New Haven      CLOUDY    65  55  70 E12       29.97R
Chester        PTSUNNY   66  55  68 SW8       29.97S
Groton         CLOUDY    62  52  69 S9        29.98R
Wilimantic     CLOUDY    69  57  65 S7        29.97S

 IN RI

CITY           SKY/WX    TMP DP  RH WIND       PRES   REMARKS
Providence     PTSUNNY   65  56  72 SE14      29.97S
Block Island   MOSUNNY   61  51  70 S13       30.00R
Westerly       CLOUDY    62  52  69 S10       30.00R
 IN MA

CITY           SKY/WX    TMP DP  RH WIND       PRES   REMARKS
Boston         PTSUNNY   63  57  81 E12       29.97R
Worcester      CLOUDY    65  52  62 VRB5      29.96S
Westfield      CLOUDY    69  58  67 VRB6      29.94S
Provincetown   CLOUDY    65  51  60 S10       29.99S
Nantucket      SUNNY     57  47  69 SE13      30.01R
$$

ANZ330-335-338-340-345-350-353-355-281700-
COASTAL MARINE OBSERVATIONS


STATION/POSITION TIME  SKY/WX   TEMP    WIND        PRES    VSBY  WAVE
                                AIR SEA DIR/SP/G                  HT/PER
                 (UTC)          (F)     (DEG/KT/KT) (MB)    (MI)  (FT/S)
NY HARB ENTRANCE 1550            59 59  140/ 10/ 10 1014.3          2/ 8
20 S FIRE ISLAND 1550            58 58  140/ 10/ 12 1014.2          2/ 8
GREAT SOUTH BAY  NOT AVBL
23 SSW MONTAUK P 1550            56 56              1015.7          2/ 8
15 E BARNEGAT LI 1530               60                N/A           2/ 7
HUDSON CANYON    1550            58 56  130/  8/ 10 1014.8          2/ 7
KINGS POINT      1536            64 60  210/  9/ 11 1013.7
EXECUTION ROCKS  1545            61                   N/A
CENTRAL LI SOUND NOT AVBL
EASTERN LI SOUND NOT AVBL
ROBBINS REEF     1536            62     170/ 14/ 15 1014.3
$$


>>>>>>>>>>>>>>>>>>>>>>>>>>>> KEY <<<<<<<<<<<<<<<<<<<<<<<<<<<
>                                                          <
>     SKY/WX - Sky Condition/Present Weather               <
>     TMP    - Temperature in Fahrenheit                   <
>     DP     - Dew Point in Fahrenheit                     <
>     RH     - Relative Humidity in Percent                <
>     WIND   - Direction (from) and Speed in MPH           <
>     PRES   - Mean Sea Level Pressure (inches of Hg)      <
>     WCI    - Wind Chill Index                            <
>     VSB    - VISIBILITY IN MILES                         <
>     HX     - HEAT INDEX                                  <
>     TC     - TEMPERATURE IN CELSIUS                      <
>     VRB    - VARIABLE WIND DIRECTION                     <
>                                                          <
>>>>>>>>>>>>>>>>>>>>>>>>>>>> KEY <<<<<<<<<<<<<<<<<<<<<<<<<<<




USA.gov is the U.S. government's official web portal to all federal, state and local government web resources and services.